Regional Weather Roundup
Issued by NWS Raleigh/Durham, NC

Home | Current Version | Previous Version | Text Only | Print | Product List | Glossary On
Versions: 1 2 3 4 5 6 7 8 9 10 11 12 13 14 15 16 17 18 19 20 21 22 23 24 25 26 27
000
ASUS42 KRAH 271010
RWRRAH
NORTH CAROLINA WEATHER ROUNDUP
NATIONAL WEATHER SERVICE RALEIGH NC
600 AM EDT MON MAR 27 2017

NOTE: "FAIR" INDICATES FEW OR NO CLOUDS BELOW 12,000 FEET WITH NO
SIGNIFICANT WEATHER AND/OR OBSTRUCTIONS TO VISIBILITY.

NCZ001-053-055-056-065-067-271100-
WESTERN NORTH CAROLINA

CITY           SKY/WX    TMP DP  RH WIND       PRES   REMARKS
ASHEVILLE      PTCLDY    56  53  90 S7        30.09S
JEFFERSON      CLOUDY    54  52  94 CALM      30.10S
MORGANTON      CLOUDY    56  56 100 CALM      30.12F FOG
HICKORY        MOCLDY    57  57 100 VRB5      30.08S
RUTHERFORDTON  CLOUDY    60  60 100 S5        30.09S
MOUNT AIRY     CLOUDY    59  57  94 SE5       30.10S
BOONE          CLOUDY    55  54  94 SW3       30.11S
$$

NCZ021-022-025-041-071-084-088-271100-
CENTRAL NORTH CAROLINA

CITY           SKY/WX    TMP DP  RH WIND       PRES   REMARKS
CHARLOTTE      MOCLDY    60  56  86 S3        30.11R
GREENSBORO     CLOUDY    58  58 100 S10       30.10S
WINSTON-SALEM  CLOUDY    58  56  93 VRB3      30.11R
RALEIGH-DURHAM CLOUDY    62  55  77 SW9       30.12R
FORT BRAGG     CLOUDY    61  55  82 CALM      30.11R
FAYETTEVILLE   CLOUDY    56  54  93 CALM      30.11R
BURLINGTON     RAIN      60  58  92 SW3       30.11R FOG
LAURINBURG     PTCLDY    58  56  93 SW5       30.12R
$$

NCZ011-015-027-028-043-044-047-080-103-271100-
NORTHEASTERN NORTH CAROLINA

CITY           SKY/WX    TMP DP  RH WIND       PRES   REMARKS
ROCKY MT-WILSO CLEAR     52  52 100 CALM      30.12S
GREENVILLE     CLEAR     54  54 100 CALM      30.14S FOG
WASHINGTON     CLEAR     55  54  96 CALM      30.14S
ELIZABETH CITY MOCLDY    56  53  90 S3        30.14S
MANTEO         CLEAR     56  54  91 CALM      30.16R
CAPE HATTERAS  CLEAR     66  53  63 S7        30.14S
$$

NCZ078-087-090-091-093-098-101-271100-
SOUTHEASTERN NORTH CAROLINA

CITY           SKY/WX    TMP DP  RH WIND       PRES   REMARKS
LUMBERTON      CLOUDY    53  53 100 CALM      30.10S
GOLDSBORO      CLOUDY    56  56 100 CALM      30.11R
KINSTON        CLOUDY    53  53  99 CALM      30.14R FOG
KENANSVILLE    CLEAR     48  48 100 CALM      30.13R
NEW BERN       CLEAR     49  49 100 CALM      30.15R
CHERRY POINT   PTCLDY    52  49  89 CALM      30.14S
BEAUFORT       CLOUDY    59  57  93 CALM      30.14R
JACKSONVILLE   PTCLDY    51  51 100 CALM      30.13R
WILMINGTON     CLEAR     51  51 100 CALM      30.12S
$$





USA.gov is the U.S. government's official web portal to all federal, state and local government web resources and services.